Home > Weather > Cumaná > Past weeks

Flag for Venezuela Weather for the Past 2 Weeks in Cumaná, Venezuela

Now
79 °F

Passing clouds.


Feels Like: 82 °F
Forecast: 78 / 88 °F
Wind: N/A

Location: Margarita / Del Carib

Current Time: Feb 11, 2016 at 7:20:01 AM

Latest Report: Feb 11, 2016 at 6:30 AM


Visibility: N/A

Pressure: 29.95 "Hg

Humidity: 89%

Dew point: 75 °F

Location of CumanáLocation

Historic Weather in Cumaná — Graph

°F

Cumaná Temperature Yesterday

Maximum temperature yesterday: 93 °F (at 1:30 PM)
Minimum temperature yesterday: 79 °F (at 12:30 AM)
Average temperature yesterday: 83 °F

High & Low Weather Summary for the Past Weeks

 TemperatureHumidityPressure
High93 °F (Jan 29, 1:30 PM)100% (Jan 31, 9:30 PM)30.04 "Hg (Jan 31, 9:30 PM)
Low37 °F (Feb 6, 12:30 PM)41% (Feb 8, 2:30 PM)29.80 "Hg (Feb 3, 4:30 PM)
Average83 °F78%29.92 "Hg
* Reported Jan 27 6:30 AM — Feb 11 5:30 AM, Cumaná, Weather by CustomWeather, © 2016

Note: Actual official high and low records may vary slightly from our data, if they occured in-between our weather recording intervals... More about our weather records

Advertising

Cumaná Weather History for the Previous 24 Hours

 ConditionsComfort  
Time TempWeatherWind HumidityBarometerVisibility
5:30 AM
Thu, Feb 11
77 °FPassing clouds.N/A94%29.92 "HgN/A
4:30 AM77 °FPassing clouds.N/A94%29.92 "HgN/A
3:30 AM77 °FPassing clouds.N/A94%29.92 "HgN/A
2:30 AM77 °FPassing clouds.N/A94%29.92 "HgN/A
12:30 AM79 °FPassing clouds.N/A89%29.95 "HgN/A
11:30 PM
Wed, Feb 10
79 °FPassing clouds.N/A89%29.98 "HgN/A
10:30 PM79 °FPassing clouds.N/A89%29.98 "HgN/A
9:30 PM79 °FPassing clouds.N/A89%29.95 "HgN/A
8:30 PM79 °FPassing clouds.N/A84%29.95 "HgN/A
7:30 PM81 °FPassing clouds.N/A79%29.92 "HgN/A
6:30 PM81 °FPassing clouds.N/A74%29.92 "HgN/A
5:30 PM82 °FPassing clouds.N/A70%29.92 "HgN/A
4:30 PM86 °FPassing clouds.N/A59%29.89 "HgN/A
3:30 PM90 °FPassing clouds.N/A55%29.92 "HgN/A
2:30 PM93 °FPassing clouds.N/A47%29.95 "HgN/A
1:30 PM93 °FPassing clouds.N/A49%29.98 "HgN/A
12:30 PM91 °FPassing clouds.N/A52%30.01 "HgN/A
11:30 AM90 °FPassing clouds.N/A55%30.01 "HgN/A
10:30 AM86 °FPassing clouds.N/A66%30.01 "HgN/A
9:30 AM88 °FPassing clouds.N/A70%30.04 "HgN/A
8:30 AM86 °FPassing clouds.N/A70%29.98 "HgN/A
7:30 AM81 °FPassing clouds.N/A84%29.98 "HgN/A
Weather by CustomWeather, © 2016

See weather overviewHow to use our weather pages